| time (UTC) | temp F | wind direction | speed MPH | gust MPH | rain 1hr in | rain 24hr in | rain mn in | humidity % | barometer mb |
| 20260508101205 | 55 | 196 | 0.0 | 0.0 | 0.00 | 0.00 | 0.00 | 91 | 1018.8 |
| 20260508100705 | 55 | 190 | 0.0 | 0.0 | 0.00 | 0.00 | 0.00 | 91 | 1018.8 |
| 20260508100204 | 55 | 82 | 0.0 | 1.0 | 0.00 | 0.00 | 0.00 | 90 | 1018.8 |
| 20260508095704 | 55 | 82 | 0.0 | 2.0 | 0.00 | 0.00 | 0.00 | 90 | 1018.7 |
| 20260508095204 | 55 | 105 | 0.0 | 4.0 | 0.00 | 0.00 | 0.00 | 90 | 1018.7 |
| 20260508094704 | 55 | 105 | 1.0 | 4.0 | 0.00 | 0.00 | 0.00 | 90 | 1018.7 |
| 20260508094204 | 55 | 181 | 1.0 | 4.0 | 0.00 | 0.00 | 0.00 | 90 | 1018.6 |
| 20260508093705 | 55 | 128 | 0.0 | 3.0 | 0.00 | 0.00 | 0.00 | 90 | 1018.6 |
| 20260508093205 | 55 | 275 | 0.0 | 2.0 | 0.00 | 0.00 | 0.00 | 90 | 1018.6 |
| 20260508092705 | 55 | 275 | 0.0 | 2.0 | 0.00 | 0.00 | 0.00 | 90 | 1018.7 |
| 20260508092205 | 55 | 275 | 0.0 | 2.0 | 0.00 | 0.00 | 0.00 | 90 | 1018.6 |
| 20260508091705 | 55 | 275 | 0.0 | 0.0 | 0.00 | 0.00 | 0.00 | 90 | 1018.7 |
| 20260508091205 | 55 | 275 | 0.0 | 0.0 | 0.00 | 0.00 | 0.00 | 90 | 1018.6 |
| 20260508090704 | 55 | 275 | 0.0 | 0.0 | 0.00 | 0.00 | 0.00 | 90 | 1018.6 |
| 20260508090204 | 55 | 275 | 0.0 | 0.0 | 0.00 | 0.00 | 0.00 | 90 | 1018.6 |
| 20260508085204 | 55 | 275 | 0.0 | 0.0 | 0.00 | 0.00 | 0.00 | 90 | 1018.6 |
| 20260508084704 | 55 | 275 | 0.0 | 0.0 | 0.00 | 0.00 | 0.00 | 90 | 1018.6 |
| 20260508084205 | 55 | 275 | 0.0 | 2.0 | 0.00 | 0.00 | 0.00 | 90 | 1018.6 |
| 20260508083204 | 55 | 275 | 1.0 | 3.0 | 0.00 | 0.00 | 0.00 | 90 | 1018.6 |
| 20260508082205 | 55 | 285 | 0.0 | 2.0 | 0.00 | 0.00 | 0.00 | 90 | 1018.7 |
| 20260508081204 | 55 | 216 | 0.0 | 0.0 | 0.00 | 0.00 | 0.00 | 90 | 1018.7 |
| 20260508080705 | 55 | 216 | 0.0 | 0.0 | 0.00 | 0.00 | 0.00 | 90 | 1018.7 |
| 20260508080204 | 55 | 216 | 0.0 | 0.0 | 0.00 | 0.00 | 0.00 | 90 | 1018.7 |
| 20260508075705 | 55 | 216 | 0.0 | 0.0 | 0.00 | 0.00 | 0.00 | 90 | 1018.6 |
| 20260508075204 | 55 | 216 | 0.0 | 0.0 | 0.00 | 0.00 | 0.00 | 90 | 1018.6 |
| 20260508074705 | 55 | 216 | 0.0 | 0.0 | 0.00 | 0.00 | 0.00 | 90 | 1018.6 |
| 20260508074204 | 55 | 216 | 0.0 | 0.0 | 0.00 | 0.00 | 0.00 | 90 | 1018.7 |
| 20260508073205 | 55 | 216 | 0.0 | 0.0 | 0.00 | 0.00 | 0.00 | 90 | 1018.6 |
| 20260508072704 | 55 | 259 | 0.0 | 3.0 | 0.00 | 0.00 | 0.00 | 90 | 1018.6 |
| 20260508072204 | 55 | 309 | 0.0 | 6.0 | 0.00 | 0.00 | 0.00 | 90 | 1018.6 |
| 20260508071704 | 55 | 290 | 1.0 | 6.0 | 0.00 | 0.00 | 0.00 | 90 | 1018.7 |
| 20260508071204 | 55 | 285 | 2.0 | 6.0 | 0.00 | 0.00 | 0.00 | 90 | 1018.6 |
| 20260508070704 | 55 | 259 | 1.0 | 5.0 | 0.00 | 0.00 | 0.00 | 90 | 1018.6 |
| 20260508070204 | 55 | 259 | 2.0 | 5.0 | 0.00 | 0.00 | 0.00 | 89 | 1018.6 |
| 20260508065704 | 55 | 215 | 1.0 | 5.0 | 0.00 | 0.00 | 0.00 | 89 | 1018.6 |
| 20260508065205 | 55 | 258 | 2.0 | 5.0 | 0.00 | 0.00 | 0.00 | 89 | 1018.5 |
| 20260508064705 | 55 | 258 | 2.0 | 5.0 | 0.00 | 0.00 | 0.00 | 89 | 1018.5 |
| 20260508064204 | 55 | 262 | 1.0 | 5.0 | 0.00 | 0.00 | 0.00 | 89 | 1018.5 |
| 20260508063205 | 55 | 238 | 2.0 | 5.0 | 0.00 | 0.00 | 0.00 | 89 | 1018.6 |
| 20260508062705 | 55 | 260 | 1.0 | 5.0 | 0.00 | 0.00 | 0.00 | 89 | 1018.5 |
| 20260508062205 | 55 | 221 | 1.0 | 5.0 | 0.00 | 0.00 | 0.00 | 89 | 1018.6 |
| 20260508061704 | 55 | 276 | 0.0 | 3.0 | 0.00 | 0.00 | 0.00 | 89 | 1018.6 |
| 20260508061204 | 55 | 231 | 0.0 | 0.0 | 0.00 | 0.00 | 0.00 | 89 | 1018.6 |
| 20260508060705 | 55 | 231 | 0.0 | 0.0 | 0.00 | 0.00 | 0.00 | 88 | 1018.6 |
| 20260508060205 | 55 | 231 | 0.0 | 0.0 | 0.00 | 0.00 | 0.00 | 88 | 1018.6 |
| 20260508055705 | 55 | 231 | 0.0 | 0.0 | 0.00 | 0.00 | 0.00 | 88 | 1018.6 |
| 20260508054204 | 55 | 231 | 0.0 | 1.0 | 0.00 | 0.00 | 0.00 | 88 | 1018.5 |
| 20260508053705 | 55 | 115 | 0.0 | 1.0 | 0.00 | 0.00 | 0.00 | 88 | 1018.5 |
| 20260508053204 | 56 | 115 | 0.0 | 1.0 | 0.00 | 0.00 | 0.00 | 88 | 1018.5 |
| 20260508052704 | 56 | 115 | 0.0 | 3.0 | 0.00 | 0.00 | 0.00 | 88 | 1018.5 |
| 20260508052205 | 56 | 115 | 0.0 | 3.0 | 0.00 | 0.00 | 0.00 | 88 | 1018.5 |
| 20260508051703 | 56 | 115 | 0.0 | 3.0 | 0.00 | 0.00 | 0.00 | 88 | 1018.4 |
| 20260508051204 | 56 | 115 | 0.0 | 2.0 | 0.00 | 0.00 | 0.00 | 88 | 1018.3 |
| 20260508050704 | 56 | 115 | 0.0 | 2.0 | 0.00 | 0.00 | 0.00 | 88 | 1018.4 |
| 20260508050206 | 56 | 115 | 0.0 | 3.0 | 0.00 | 0.00 | 0.00 | 87 | 1018.4 |
| 20260508045704 | 56 | 115 | 0.0 | 5.0 | 0.00 | 0.00 | 0.00 | 87 | 1018.4 |
| 20260508045204 | 56 | 115 | 1.0 | 5.0 | 0.00 | 0.00 | 0.00 | 87 | 1018.4 |
| 20260508044704 | 56 | 115 | 1.0 | 5.0 | 0.00 | 0.00 | 0.00 | 87 | 1018.3 |
| 20260508044204 | 56 | 138 | 1.0 | 5.0 | 0.00 | 0.00 | 0.00 | 87 | 1018.3 |
| 20260508043204 | 56 | 107 | 1.0 | 5.0 | 0.00 | 0.00 | 0.00 | 87 | 1018.2 |
| 20260508042704 | 56 | 111 | 1.0 | 8.0 | 0.00 | 0.00 | 0.00 | 87 | 1018.1 |
| 20260508041705 | 56 | 115 | 3.0 | 7.0 | 0.00 | 0.00 | 0.00 | 86 | 1017.9 |
| 20260508041204 | 56 | 135 | 2.0 | 8.0 | 0.00 | 0.00 | 0.00 | 86 | 1017.9 |
| 20260508040704 | 56 | 121 | 2.0 | 8.0 | 0.00 | 0.00 | 0.00 | 86 | 1017.9 |
| 20260508040205 | 57 | 77 | 2.0 | 8.0 | 0.00 | 0.00 | 0.00 | 86 | 1017.8 |
| 20260508035705 | 57 | 134 | 3.0 | 8.0 | 0.00 | 0.00 | 0.00 | 85 | 1017.7 |
| 20260508035204 | 57 | 69 | 2.0 | 8.0 | 0.00 | 0.00 | 0.00 | 85 | 1017.8 |
| 20260508034204 | 57 | 119 | 4.0 | 11.0 | 0.00 | 0.00 | 0.00 | 85 | 1017.6 |
| 20260508033704 | 57 | 107 | 5.0 | 11.0 | 0.00 | 0.00 | 0.00 | 84 | 1017.7 |
| 20260508033205 | 58 | 138 | 6.0 | 12.0 | 0.00 | 0.00 | 0.00 | 84 | 1017.7 |
| 20260508032704 | 58 | 111 | 7.0 | 12.0 | 0.00 | 0.00 | 0.00 | 83 | 1017.6 |
| 20260508032204 | 58 | 111 | 6.0 | 12.0 | 0.00 | 0.00 | 0.00 | 82 | 1017.5 |
| 20260508031704 | 59 | 127 | 6.0 | 13.0 | 0.00 | 0.00 | 0.00 | 81 | 1017.3 |
| 20260508031204 | 59 | 129 | 7.0 | 13.0 | 0.00 | 0.00 | 0.00 | 80 | 1017.3 |
| 20260508030704 | 59 | 121 | 7.0 | 13.0 | 0.00 | 0.00 | 0.00 | 79 | 1017.2 |
| 20260508030204 | 60 | 117 | 6.0 | 13.0 | 0.00 | 0.00 | 0.00 | 78 | 1017.2 |
| 20260508025704 | 60 | 116 | 6.0 | 11.0 | 0.00 | 0.00 | 0.00 | 78 | 1017.1 |
| 20260508025204 | 61 | 134 | 4.0 | 11.0 | 0.00 | 0.00 | 0.00 | 77 | 1017.0 |
| 20260508024704 | 61 | 69 | 4.0 | 11.0 | 0.00 | 0.00 | 0.00 | 77 | 1017.0 |
| 20260508024205 | 62 | 115 | 4.0 | 11.0 | 0.00 | 0.00 | 0.00 | 77 | 1017.0 |
| 20260508023705 | 62 | 142 | 5.0 | 11.0 | 0.00 | 0.00 | 0.00 | 76 | 1016.9 |
| 20260508023204 | 62 | 111 | 5.0 | 11.0 | 0.00 | 0.00 | 0.00 | 76 | 1016.9 |
| 20260508022705 | 63 | 74 | 4.0 | 11.0 | 0.00 | 0.00 | 0.00 | 75 | 1016.8 |
| 20260508022205 | 64 | 100 | 5.0 | 14.0 | 0.00 | 0.00 | 0.00 | 75 | 1016.7 |
| 20260508021704 | 64 | 131 | 5.0 | 14.0 | 0.00 | 0.00 | 0.00 | 74 | 1016.8 |
| 20260508021204 | 64 | 127 | 6.0 | 14.0 | 0.00 | 0.00 | 0.00 | 74 | 1016.6 |
| 20260508020711 | 64 | 85 | 6.0 | 13.0 | 0.00 | 0.00 | 0.00 | 74 | 1016.8 |
| 20260508020204 | 64 | 128 | 6.0 | 13.0 | 0.00 | 0.00 | 0.00 | 75 | 1016.7 |
| 20260508015704 | 64 | 113 | 6.0 | 13.0 | 0.00 | 0.00 | 0.00 | 77 | 1016.6 |
| 20260508015204 | 64 | 134 | 7.0 | 12.0 | 0.00 | 0.00 | 0.00 | 77 | 1016.6 |
| 20260508014705 | 64 | 125 | 8.0 | 13.0 | 0.00 | 0.00 | 0.00 | 77 | 1016.5 |
| 20260508014204 | 64 | 107 | 7.0 | 13.0 | 0.00 | 0.00 | 0.00 | 76 | 1016.5 |
| 20260508013204 | 64 | 94 | 7.0 | 13.0 | 0.00 | 0.00 | 0.00 | 75 | 1016.5 |
| 20260508012705 | 65 | 105 | 6.0 | 13.0 | 0.00 | 0.00 | 0.00 | 75 | 1016.4 |
| 20260508012205 | 65 | 122 | 6.0 | 14.0 | 0.00 | 0.00 | 0.00 | 74 | 1016.4 |
| 20260508011704 | 65 | 115 | 5.0 | 14.0 | 0.00 | 0.00 | 0.00 | 74 | 1016.4 |
| 20260508010705 | 65 | 112 | 7.0 | 13.0 | 0.00 | 0.00 | 0.00 | 73 | 1016.4 |
| 20260508010205 | 65 | 100 | 7.0 | 13.0 | 0.00 | 0.00 | 0.00 | 73 | 1016.5 |
| 20260508005704 | 65 | 126 | 7.0 | 13.0 | 0.00 | 0.00 | 0.00 | 72 | 1016.6 |
| 20260508005204 | 66 | 109 | 6.0 | 13.0 | 0.00 | 0.00 | 0.00 | 71 | 1016.6 |
| 20260508004704 | 66 | 109 | 6.0 | 13.0 | 0.00 | 0.00 | 0.00 | 70 | 1016.6 |
| 20260508004205 | 66 | 89 | 5.0 | 12.0 | 0.00 | 0.00 | 0.00 | 68 | 1016.7 |
| 20260508003704 | 67 | 109 | 4.0 | 12.0 | 0.00 | 0.00 | 0.00 | 68 | 1016.6 |
| 20260508003204 | 66 | 118 | 5.0 | 12.0 | 0.00 | 0.00 | 0.00 | 69 | 1016.5 |
| 20260508002204 | 66 | 107 | 6.0 | 12.0 | 0.00 | 0.00 | 0.00 | 68 | 1016.7 |
| 20260508001704 | 67 | 48 | 5.0 | 12.0 | 0.00 | 0.00 | 0.00 | 67 | 1016.6 |
| 20260508000205 | 67 | 94 | 4.0 | 11.0 | 0.00 | 0.00 | 0.00 | 68 | 1016.5 |
| 20260507235706 | 67 | 70 | 5.0 | 12.0 | 0.00 | 0.00 | 0.00 | 68 | 1016.6 |
| 20260507235204 | 67 | 126 | 7.0 | 12.0 | 0.00 | 0.00 | 0.00 | 68 | 1016.6 |
| 20260507234704 | 68 | 79 | 6.0 | 12.0 | 0.00 | 0.00 | 0.00 | 66 | 1016.6 |
| 20260507234205 | 69 | 37 | 5.0 | 9.0 | 0.00 | 0.00 | 0.00 | 65 | 1016.6 |
| 20260507233204 | 69 | 49 | 4.0 | 9.0 | 0.00 | 0.00 | 0.00 | 65 | 1016.6 |
| 20260507232704 | 69 | 98 | 4.0 | 9.0 | 0.00 | 0.00 | 0.00 | 67 | 1016.7 |
| 20260507232205 | 69 | 74 | 4.0 | 9.0 | 0.00 | 0.00 | 0.00 | 67 | 1016.8 |
| 20260507231704 | 69 | 42 | 4.0 | 9.0 | 0.00 | 0.00 | 0.00 | 66 | 1016.9 |
| 20260507231205 | 69 | 71 | 4.0 | 8.0 | 0.00 | 0.00 | 0.00 | 66 | 1016.8 |
| 20260507230705 | 70 | 115 | 4.0 | 8.0 | 0.00 | 0.00 | 0.00 | 65 | 1016.8 |
| 20260507230205 | 71 | 86 | 4.0 | 8.0 | 0.00 | 0.00 | 0.00 | 63 | 1016.8 |
| 20260507225704 | 72 | 128 | 4.0 | 8.0 | 0.00 | 0.00 | 0.00 | 63 | 1017.0 |
| 20260507225204 | 72 | 92 | 4.0 | 9.0 | 0.00 | 0.00 | 0.00 | 63 | 1016.9 |
| 20260507224204 | 74 | 51 | 3.0 | 7.0 | 0.00 | 0.00 | 0.00 | 59 | 1017.0 |
| 20260507223704 | 74 | 99 | 3.0 | 7.0 | 0.00 | 0.00 | 0.00 | 58 | 1017.0 |
| 20260507223204 | 74 | 216 | 3.0 | 7.0 | 0.00 | 0.00 | 0.00 | 60 | 1017.0 |
| 20260507222704 | 74 | 167 | 4.0 | 8.0 | 0.00 | 0.00 | 0.00 | 60 | 1017.2 |
| 20260507222205 | 74 | 188 | 3.0 | 8.0 | 0.00 | 0.00 | 0.00 | 59 | 1017.2 |
| 20260507221204 | 74 | 130 | 3.0 | 7.0 | 0.00 | 0.00 | 0.00 | 59 | 1017.2 |
| 20260507220204 | 74 | 205 | 3.0 | 6.0 | 0.00 | 0.00 | 0.00 | 60 | 1017.3 |
| 20260507215704 | 74 | 193 | 3.0 | 6.0 | 0.00 | 0.00 | 0.00 | 61 | 1017.3 |
| 20260507213204 | 72 | 125 | 3.0 | 9.0 | 0.00 | 0.00 | 0.00 | 65 | 1017.5 |
| 20260507212704 | 71 | 105 | 4.0 | 9.0 | 0.00 | 0.00 | 0.00 | 67 | 1017.5 |
| 20260507211705 | 71 | 113 | 4.0 | 9.0 | 0.00 | 0.00 | 0.00 | 67 | 1017.7 |
| 20260507211205 | 70 | 75 | 4.0 | 9.0 | 0.00 | 0.00 | 0.00 | 69 | 1017.7 |
| 20260507210704 | 70 | 117 | 4.0 | 8.0 | 0.00 | 0.00 | 0.00 | 70 | 1017.8 |
| 20260507210204 | 69 | 130 | 4.0 | 8.0 | 0.00 | 0.00 | 0.00 | 70 | 1017.8 |
| 20260507205204 | 68 | 132 | 4.0 | 8.0 | 0.00 | 0.00 | 0.00 | 71 | 1017.8 |
| 20260507204704 | 68 | 145 | 4.0 | 9.0 | 0.00 | 0.00 | 0.00 | 72 | 1018.0 |
| 20260507204204 | 68 | 134 | 5.0 | 9.0 | 0.00 | 0.00 | 0.00 | 72 | 1018.0 |
| 20260507203705 | 68 | 117 | 5.0 | 9.0 | 0.00 | 0.00 | 0.00 | 72 | 1017.9 |
| 20260507203205 | 68 | 114 | 5.0 | 9.0 | 0.00 | 0.00 | 0.00 | 71 | 1018.0 |
| 20260507202704 | 68 | 140 | 5.0 | 9.0 | 0.00 | 0.00 | 0.00 | 72 | 1018.2 |
| 20260507200205 | 67 | 138 | 3.0 | 8.0 | 0.00 | 0.00 | 0.00 | 73 | 1018.4 |
| 20260507195704 | 67 | 31 | 3.0 | 8.0 | 0.00 | 0.00 | 0.00 | 72 | 1018.3 |
| 20260507195204 | 67 | 121 | 3.0 | 8.0 | 0.00 | 0.00 | 0.00 | 73 | 1018.4 |
| 20260507194704 | 67 | 128 | 2.0 | 8.0 | 0.00 | 0.00 | 0.00 | 74 | 1018.4 |
| 20260507194204 | 67 | 148 | 2.0 | 6.0 | 0.00 | 0.00 | 0.00 | 75 | 1018.6 |
| 20260507193205 | 65 | 19 | 2.0 | 6.0 | 0.00 | 0.00 | 0.00 | 80 | 1018.7 |
| 20260507192704 | 63 | 240 | 3.0 | 7.0 | 0.00 | 0.00 | 0.00 | 81 | 1018.8 |
| 20260507191205 | 61 | 173 | 4.0 | 8.0 | 0.00 | 0.00 | 0.00 | 83 | 1019.1 |
| 20260507190704 | 60 | 217 | 4.0 | 8.0 | 0.00 | 0.00 | 0.00 | 84 | 1019.1 |
| 20260507190205 | 60 | 186 | 5.0 | 8.0 | 0.00 | 0.00 | 0.00 | 85 | 1019.1 |
| 20260507185705 | 60 | 194 | 5.0 | 8.0 | 0.00 | 0.00 | 0.00 | 85 | 1019.2 |
| 20260507185204 | 60 | 188 | 4.0 | 9.0 | 0.00 | 0.00 | 0.00 | 86 | 1019.3 |
| 20260507184704 | 59 | 229 | 5.0 | 9.0 | 0.00 | 0.00 | 0.00 | 86 | 1019.2 |
| 20260507184205 | 59 | 258 | 4.0 | 9.0 | 0.00 | 0.00 | 0.00 | 87 | 1019.3 |
| 20260507183705 | 60 | 207 | 4.0 | 8.0 | 0.00 | 0.00 | 0.00 | 88 | 1019.3 |
| 20260507183204 | 59 | 173 | 4.0 | 8.0 | 0.00 | 0.00 | 0.00 | 88 | 1019.3 |
| 20260507182705 | 59 | 163 | 4.0 | 7.0 | 0.00 | 0.00 | 0.00 | 89 | 1019.5 |
| 20260507182205 | 59 | 207 | 3.0 | 7.0 | 0.00 | 0.00 | 0.00 | 90 | 1019.4 |
| 20260507181205 | 58 | 216 | 4.0 | 8.0 | 0.00 | 0.00 | 0.00 | 90 | 1019.5 |
| 20260507180204 | 58 | 218 | 5.0 | 8.0 | 0.00 | 0.00 | 0.00 | 91 | 1019.5 |
| 20260507175704 | 58 | 244 | 5.0 | 8.0 | 0.00 | 0.00 | 0.00 | 91 | 1019.6 |
| 20260507175206 | 58 | 270 | 4.0 | 8.0 | 0.00 | 0.00 | 0.00 | 92 | 1019.6 |
| 20260507174705 | 58 | 207 | 4.0 | 8.0 | 0.00 | 0.00 | 0.00 | 92 | 1019.6 |
| 20260507174205 | 58 | 222 | 4.0 | 7.0 | 0.00 | 0.00 | 0.00 | 92 | 1019.5 |
| 20260507173204 | 58 | 211 | 3.0 | 7.0 | 0.00 | 0.00 | 0.00 | 93 | 1019.5 |
| 20260507172704 | 57 | 178 | 3.0 | 7.0 | 0.00 | 0.00 | 0.00 | 94 | 1019.5 |
| 20260507172205 | 57 | 188 | 4.0 | 7.0 | 0.00 | 0.00 | 0.00 | 94 | 1019.4 |
| 20260507171704 | 57 | 194 | 3.0 | 5.0 | 0.00 | 0.00 | 0.00 | 94 | 1019.5 |
| 20260507171205 | 57 | 236 | 2.0 | 5.0 | 0.00 | 0.00 | 0.00 | 94 | 1019.5 |
| 20260507170705 | 57 | 272 | 2.0 | 5.0 | 0.00 | 0.00 | 0.00 | 94 | 1019.4 |
| 20260507170205 | 57 | 202 | 0.0 | 4.0 | 0.00 | 0.00 | 0.00 | 94 | 1019.4 |
| 20260507165205 | 56 | 238 | 2.0 | 4.0 | 0.00 | 0.00 | 0.00 | 94 | 1019.4 |
| 20260507164205 | 56 | 180 | 1.0 | 4.0 | 0.00 | 0.00 | 0.00 | 94 | 1019.5 |
| 20260507163705 | 56 | 294 | 1.0 | 4.0 | 0.00 | 0.00 | 0.00 | 94 | 1019.6 |
| 20260507163204 | 56 | 214 | 1.0 | 3.0 | 0.00 | 0.00 | 0.00 | 94 | 1019.5 |
| 20260507162704 | 56 | 309 | 1.0 | 3.0 | 0.00 | 0.00 | 0.00 | 94 | 1019.5 |
| 20260507162205 | 56 | 311 | 0.0 | 3.0 | 0.00 | 0.00 | 0.00 | 94 | 1019.6 |
| 20260507161704 | 56 | 231 | 0.0 | 1.0 | 0.00 | 0.00 | 0.00 | 94 | 1019.6 |
| 20260507161204 | 56 | 46 | 0.0 | 2.0 | 0.00 | 0.00 | 0.00 | 94 | 1019.6 |
| 20260507160705 | 56 | 303 | 0.0 | 2.0 | 0.00 | 0.00 | 0.00 | 94 | 1019.6 |
| 20260507155203 | 55 | 293 | 0.0 | 2.0 | 0.00 | 0.00 | 0.00 | 94 | 1019.5 |
| 20260507154704 | 55 | 293 | 0.0 | 3.0 | 0.00 | 0.00 | 0.00 | 94 | 1019.6 |
| 20260507154205 | 55 | 276 | 1.0 | 3.0 | 0.00 | 0.00 | 0.00 | 94 | 1019.6 |
| 20260507153705 | 55 | 238 | 1.0 | 3.0 | 0.00 | 0.00 | 0.00 | 94 | 1019.6 |
| 20260507153204 | 55 | 238 | 0.0 | 5.0 | 0.00 | 0.00 | 0.00 | 94 | 1019.6 |
| 20260507152704 | 55 | 128 | 1.0 | 5.0 | 0.00 | 0.00 | 0.00 | 94 | 1019.6 |
| 20260507152204 | 55 | 136 | 2.0 | 5.0 | 0.00 | 0.00 | 0.00 | 93 | 1019.5 |
| 20260507151205 | 55 | 114 | 0.0 | 2.0 | 0.00 | 0.00 | 0.00 | 93 | 1019.7 |
| 20260507150704 | 55 | 139 | 0.0 | 2.0 | 0.00 | 0.00 | 0.00 | 93 | 1019.7 |
| 20260507150204 | 55 | 139 | 0.0 | 0.0 | 0.00 | 0.00 | 0.00 | 93 | 1019.6 |
| 20260507145205 | 55 | 96 | 0.0 | 0.0 | 0.00 | 0.00 | 0.00 | 93 | 1019.6 |
| 20260507144205 | 55 | 136 | 0.0 | 0.0 | 0.00 | 0.00 | 0.00 | 93 | 1019.5 |
| 20260507143704 | 55 | 136 | 0.0 | 2.0 | 0.00 | 0.00 | 0.00 | 93 | 1019.5 |
| 20260507143205 | 55 | 136 | 0.0 | 2.0 | 0.00 | 0.00 | 0.00 | 93 | 1019.6 |
| 20260507142204 | 55 | 202 | 0.0 | 3.0 | 0.00 | 0.00 | 0.00 | 93 | 1019.6 |
| 20260507141704 | 55 | 201 | 1.0 | 3.0 | 0.00 | 0.00 | 0.00 | 93 | 1019.4 |
| 20260507141205 | 55 | 201 | 1.0 | 3.0 | 0.00 | 0.00 | 0.00 | 93 | 1019.5 |
| 20260507140704 | 55 | 201 | 1.0 | 3.0 | 0.00 | 0.00 | 0.00 | 93 | 1019.6 |
| 20260507140204 | 55 | 110 | 1.0 | 3.0 | 0.00 | 0.00 | 0.00 | 93 | 1019.4 |
| 20260507135704 | 55 | 110 | 0.0 | 3.0 | 0.00 | 0.00 | 0.00 | 93 | 1019.4 |
| 20260507135204 | 55 | 109 | 1.0 | 3.0 | 0.00 | 0.00 | 0.00 | 93 | 1019.4 |
| 20260507134704 | 55 | 109 | 1.0 | 4.0 | 0.00 | 0.00 | 0.00 | 93 | 1019.3 |
| 20260507134205 | 55 | 111 | 1.0 | 4.0 | 0.00 | 0.00 | 0.00 | 93 | 1019.3 |
| 20260507133704 | 55 | 142 | 1.0 | 4.0 | 0.00 | 0.00 | 0.00 | 92 | 1019.3 |
| 20260507133204 | 55 | 134 | 2.0 | 5.0 | 0.00 | 0.00 | 0.00 | 92 | 1019.3 |
| 20260507132704 | 55 | 190 | 2.0 | 5.0 | 0.00 | 0.00 | 0.00 | 92 | 1019.1 |
| 20260507132204 | 55 | 190 | 2.0 | 4.0 | 0.00 | 0.00 | 0.00 | 92 | 1019.1 |
| 20260507131705 | 55 | 182 | 1.0 | 4.0 | 0.00 | 0.00 | 0.00 | 92 | 1019.1 |
| 20260507131205 | 55 | 175 | 1.0 | 3.0 | 0.00 | 0.00 | 0.00 | 92 | 1019.0 |
| 20260507130704 | 55 | 175 | 1.0 | 2.0 | 0.00 | 0.00 | 0.00 | 92 | 1019.0 |
| 20260507130205 | 55 | 159 | 0.0 | 0.0 | 0.00 | 0.00 | 0.00 | 92 | 1019.0 |
| 20260507125704 | 54 | 149 | 0.0 | 0.0 | 0.00 | 0.00 | 0.00 | 92 | 1019.0 |
| 20260507125205 | 54 | 53 | 0.0 | 0.0 | 0.00 | 0.00 | 0.00 | 92 | 1019.0 |
| 20260507124705 | 54 | 53 | 0.0 | 1.0 | 0.00 | 0.00 | 0.00 | 92 | 1018.9 |
| 20260507124204 | 54 | 53 | 0.0 | 1.0 | 0.00 | 0.00 | 0.00 | 92 | 1018.9 |
| 20260507123704 | 54 | 14 | 0.0 | 0.0 | 0.00 | 0.00 | 0.00 | 92 | 1019.0 |
| 20260507123204 | 54 | 24 | 0.0 | 0.0 | 0.00 | 0.00 | 0.00 | 92 | 1019.0 |
| 20260507122706 | 54 | 46 | 0.0 | 0.0 | 0.00 | 0.00 | 0.00 | 92 | 1019.0 |
| 20260507122205 | 54 | 294 | 0.0 | 0.0 | 0.00 | 0.00 | 0.00 | 92 | 1019.0 |
| 20260507121705 | 54 | 294 | 0.0 | 0.0 | 0.00 | 0.00 | 0.00 | 92 | 1019.0 |
| 20260507121205 | 53 | 294 | 0.0 | 0.0 | 0.00 | 0.00 | 0.00 | 92 | 1018.9 |
| 20260507120704 | 53 | 294 | 0.0 | 0.0 | 0.00 | 0.00 | 0.00 | 92 | 1019.1 |
| 20260507120204 | 53 | 323 | 0.0 | 0.0 | 0.00 | 0.00 | 0.00 | 92 | 1019.0 |
| 20260507115705 | 53 | 323 | 0.0 | 0.0 | 0.00 | 0.00 | 0.00 | 91 | 1019.1 |
| 20260507114705 | 53 | 323 | 0.0 | 0.0 | 0.00 | 0.00 | 0.00 | 92 | 1019.1 |
| 20260507112704 | 54 | 323 | 0.0 | 0.0 | 0.00 | 0.00 | 0.00 | 92 | 1019.1 |
| 20260507112205 | 54 | 323 | 0.0 | 0.0 | 0.00 | 0.00 | 0.00 | 91 | 1019.0 |
| 20260507111705 | 54 | 323 | 0.0 | 2.0 | 0.00 | 0.00 | 0.00 | 91 | 1019.1 |
| 20260507111204 | 54 | 323 | 0.0 | 2.0 | 0.00 | 0.00 | 0.00 | 91 | 1019.1 |
| 20260507110704 | 54 | 323 | 0.0 | 3.0 | 0.00 | 0.00 | 0.00 | 92 | 1019.1 |
| 20260507110206 | 54 | 306 | 1.0 | 3.0 | 0.00 | 0.00 | 0.00 | 92 | 1019.1 |
| 20260507105705 | 55 | 298 | 1.0 | 3.0 | 0.00 | 0.00 | 0.00 | 91 | 1019.1 |
| 20260507105204 | 55 | 288 | 1.0 | 3.0 | 0.00 | 0.00 | 0.00 | 92 | 1019.1 |
| 20260507104706 | 55 | 284 | 1.0 | 3.0 | 0.00 | 0.00 | 0.00 | 92 | 1019.1 |
| 20260507104205 | 55 | 233 | 0.0 | 2.0 | 0.00 | 0.00 | 0.00 | 92 | 1019.1 |
| 20260507103705 | 55 | 233 | 0.0 | 2.0 | 0.00 | 0.00 | 0.00 | 92 | 1019.1 |
| 20260507103204 | 55 | 233 | 0.0 | 2.0 | 0.00 | 0.00 | 0.00 | 92 | 1019.2 |
| 20260507102704 | 55 | 233 | 1.0 | 3.0 | 0.00 | 0.00 | 0.00 | 92 | 1019.2 |
| 20260507102204 | 55 | 233 | 1.0 | 4.0 | 0.00 | 0.00 | 0.00 | 92 | 1019.2 |